,,Stat6,,Stat2,,Stat8,,Stat9,,Stat10,,Wind1,,Wind1,
time,status,PA1M_AVG,status,PR1M_SUM,status,RH1M_AVG,status,SR1M_AVG,status,TA1M_AVG,status,W1dAve1m,status,W1sAve1m,
2009-07-10, 00:00:00,VALID,918.076,VALID,0,VALID,100,VALID,-0.135847,VALID,19.3411,VALID,171,VALID,0.0958333,
2009-07-10, 00:01:00,VALID,918.069,VALID,0,VALID,100,VALID,-0.101885,VALID,19.3381,VALID,156,VALID,0.377778,
2009-07-10, 00:02:00,VALID,918.05,VALID,0,VALID,100,VALID,-0.0849042,VALID,19.3411,VALID,166,VALID,0.536014,
2009-07-10, 00:03:00,VALID,918.036,VALID,0,VALID,100,VALID,-0.118866,VALID,19.3479,VALID,162,VALID,0.609193,
2009-07-10, 00:04:00,VALID,918.017,VALID,0,VALID,100,VALID,-0.101885,VALID,19.3511,VALID,164,VALID,0.510653,
2009-07-10, 00:05:00,VALID,917.988,VALID,0,VALID,100,VALID,-0.0849042,VALID,19.3471,VALID,159,VALID,0.81891,
2009-07-10, 00:06:00,VALID,917.966,VALID,0,VALID,100,VALID,-0.0849042,VALID,19.3606,VALID,154,VALID,0.581424,
2009-07-10, 00:07:00,VALID,917.94,VALID,0,VALID,100,VALID,-0.101885,VALID,19.3736,VALID,152,VALID,0.241257,
2009-07-10, 00:08:00,VALID,917.925,VALID,0,VALID,100,VALID,-0.101885,VALID,19.3803,VALID,150,VALID,0.382626,
2009-07-10, 00:09:00,VALID,917.915,VALID,0,VALID,100,VALID,-0.101885,VALID,19.3541,VALID,142,VALID,0.4758,
2009-07-10, 00:10:00,VALID,917.92,VALID,0,VALID,100,VALID,-0.101885,VALID,19.3379,VALID,143,VALID,0.317522,
2009-07-10, 00:11:00,VALID,917.94,VALID,0,VALID,100,VALID,-0.118866,VALID,19.3344,VALID,142,VALID,0.669922,
2009-07-10, 00:12:00,VALID,917.96,VALID,0,VALID,100,VALID,-0.101885,VALID,19.3214,VALID,136,VALID,0.284226,
2009-07-10, 00:13:00,VALID,917.946,VALID,0,VALID,100,VALID,-0.101885,VALID,19.3084,VALID,136,VALID,0.853849,
2009-07-10, 00:14:00,VALID,917.95,VALID,0,VALID,100,VALID,-0.0679233,VALID,19.3252,VALID,137,VALID,0.509375,
2009-07-10, 00:15:00,VALID,917.934,VALID,0,VALID,100,VALID,-0.101885,VALID,19.3249,VALID,139,VALID,0.407366,
2009-07-10, 00:16:00,VALID,917.938,VALID,0,VALID,100,VALID,-0.0849042,VALID,19.3344,VALID,137,VALID,0.258956,
2009-07-10, 00:17:00,VALID,917.915,VALID,0,VALID,100,VALID,-0.0849042,VALID,19.3144,VALID,134,VALID,0.740327,
2009-07-10, 00:18:00,VALID,917.898,VALID,0,VALID,100,VALID,-0.0509425,VALID,19.3312,VALID,136,VALID,0.247954,
2009-07-10, 00:19:00,VALID,917.893,VALID,0,VALID,100,VALID,-0.0849042,VALID,19.3219,VALID,123,VALID,0.332775,
2009-07-10, 00:20:00,VALID,917.878,VALID,0,VALID,100,VALID,-0.101885,VALID,19.3114,VALID,131,VALID,0.103766,
2009-07-10, 00:21:00,VALID,917.867,VALID,0,VALID,100,VALID,-0.0849042,VALID,19.3052,VALID,122,VALID,0.154204,
2009-07-10, 00:22:00,VALID,917.872,VALID,0,VALID,100,VALID,-0.0339617,VALID,19.3084,VALID,126,VALID,0.337466,
2009-07-10, 00:23:00,VALID,917.877,VALID,0,VALID,100,VALID,-0.0509425,VALID,19.2925,VALID,127,VALID,0.166371,
2009-07-10, 00:24:00,VALID,917.879,VALID,0,VALID,100,VALID,-0.0679233,VALID,19.289,VALID,129,VALID,0.243331,
2009-07-10, 00:25:00,VALID,917.88,VALID,0,VALID,100,VALID,-0.0849042,VALID,19.2795,VALID,144,VALID,0.165278,
2009-07-10, 00:26:00,VALID,917.867,VALID,0,VALID,100,VALID,-0.0849042,VALID,19.2825,VALID,148,VALID,0.383878,
2009-07-10, 00:27:00,VALID,917.866,VALID,0,VALID,100,VALID,-0.0679233,VALID,19.2758,VALID,153,VALID,0.313244,
2009-07-10, 00:28:00,VALID,917.858,VALID,0,VALID,100,VALID,-0.0509425,VALID,19.2825,VALID,147,VALID,0.269531,
2009-07-10, 00:29:00,VALID,917.849,VALID,0,VALID,100,VALID,-0.101885,VALID,19.2795,VALID,148,VALID,0.806402,
2009-07-10, 00:30:00,VALID,917.823,VALID,0,VALID,100,VALID,-0.0509425,VALID,19.2628,VALID,144,VALID,0.980923,
2009-07-10, 00:31:00,VALID,917.799,VALID,0,VALID,100,VALID,-0.0849042,VALID,19.2695,VALID,132,VALID,1.06134,
2009-07-10, 00:32:00,VALID,917.791,VALID,0,VALID,100,VALID,-0.0849042,VALID,19.253,VALID,136,VALID,1.23074,
2009-07-10, 00:33:00,VALID,917.765,VALID,0,VALID,100,VALID,-0.0849042,VALID,19.26,VALID,133,VALID,1.28711,
2009-07-10, 00:34:00,VALID,917.752,VALID,0,VALID,100,VALID,-0.101885,VALID,19.2368,VALID,127,VALID,1.58836,
2009-07-10, 00:35:00,VALID,917.741,VALID,0,VALID,100,VALID,-0.0849042,VALID,19.2503,VALID,138,VALID,1.18732,
2009-07-10, 00:36:00,VALID,917.735,VALID,0,VALID,100,VALID,-0.101885,VALID,19.244,VALID,144,VALID,1.08485,
2009-07-10, 00:37:00,VALID,917.7,VALID,0,VALID,100,VALID,-0.0679233,VALID,19.2436,VALID,138,VALID,0.710211,
2009-07-10, 00:38:00,VALID,917.665,VALID,0,VALID,100,VALID,-0.0679233,VALID,19.2398,VALID,135,VALID,0.478906,
2009-07-10, 00:39:00,VALID,917.627,VALID,0,VALID,100,VALID,-0.118866,VALID,19.2336,VALID,136,VALID,0.263148,
2009-07-10, 00:40:00,VALID,917.585,VALID,0,VALID,100,VALID,-0.101885,VALID,19.2498,VALID,140,VALID,0.151758,
2009-07-10, 00:41:00,VALID,917.539,VALID,0,VALID,100,VALID,-0.101885,VALID,19.2436,VALID,136,VALID,0.462754,
2009-07-10, 00:42:00,VALID,917.509,VALID,0,VALID,100,VALID,0,VALID,19.2358,VALID,117,VALID,0.419567,
2009-07-10, 00:43:00,VALID,917.466,VALID,0,VALID,100,VALID,0,VALID,19.2294,VALID,99,VALID,0,
2009-07-10, 00:44:00,VALID,917.452,VALID,0,VALID,100,VALID,0.0169808,VALID,19.2159,VALID,77,VALID,0,
2009-07-10, 00:45:00,VALID,917.421,VALID,0,VALID,100,VALID,0.0169808,VALID,19.2062,VALID,96,VALID,0,
2009-07-10, 00:46:00,VALID,917.403,VALID,0,VALID,100,VALID,0.0339617,VALID,19.2094,VALID,115,VALID,0,
2009-07-10, 00:47:00,VALID,917.398,VALID,0,VALID,100,VALID,0.0339617,VALID,19.2127,VALID,124,VALID,0.0610119,
2009-07-10, 00:48:00,VALID,917.381,VALID,0,VALID,100,VALID,0.0339617,VALID,19.2321,VALID,135,VALID,0.263579,
2009-07-10, 00:49:00,VALID,917.352,VALID,0,VALID,100,VALID,0.0509425,VALID,19.2321,VALID,142,VALID,0.523065,
2009-07-10, 00:50:00,VALID,917.346,VALID,0,VALID,100,VALID,0,VALID,19.2356,VALID,150,VALID,0.532315,
2009-07-10, 00:51:00,VALID,917.351,VALID,0,VALID,100,VALID,-0.0169808,VALID,19.2391,VALID,160,VALID,0.588728,
2009-07-10, 00:52:00,VALID,917.36,VALID,0,VALID,100,VALID,0,VALID,19.2391,VALID,155,VALID,0,
2009-07-10, 00:53:00,VALID,917.377,VALID,0,VALID,100,VALID,0,VALID,19.2461,VALID,156,VALID,0.00133384,
2009-07-10, 00:54:00,VALID,917.397,VALID,0,VALID,100,VALID,0.0169808,VALID,19.2363,VALID,143,VALID,0,
2009-07-10, 00:55:00,VALID,917.408,VALID,0,VALID,100,VALID,0,VALID,19.2067,VALID,117,VALID,0.302778,
2009-07-10, 00:56:00,VALID,917.418,VALID,0,VALID,100,VALID,0.0509425,VALID,19.1967,VALID,115,VALID,0.812863,
2009-07-10, 00:57:00,VALID,917.427,VALID,0,VALID,100,VALID,0,VALID,19.1839,VALID,104,VALID,0.630729,
2009-07-10, 00:58:00,VALID,917.422,VALID,0,VALID,100,VALID,0,VALID,19.1937,VALID,97,VALID,0.257267,
2009-07-10, 00:59:00,VALID,917.41,VALID,0,VALID,100,VALID,0.0339617,VALID,19.1939,VALID,84,VALID,0.134084,
2009-07-10, 01:00:00,VALID,917.401,VALID,0,VALID,100,VALID,0,VALID,19.1932,VALID,78,VALID,0,
2009-07-10, 01:01:00,VALID,917.385,VALID,0,VALID,100,VALID,0,VALID,19.2032,VALID,65,VALID,0,
2009-07-10, 01:02:00,VALID,917.371,VALID,0,VALID,100,VALID,0.0169808,VALID,19.1869,VALID,64,VALID,0,
2009-07-10, 01:03:00,VALID,917.361,VALID,0,VALID,100,VALID,0.0509425,VALID,19.1642,VALID,64,VALID,0,
2009-07-10, 01:04:00,VALID,917.37,VALID,0,VALID,100,VALID,0,VALID,19.148,VALID,64,VALID,0,
2009-07-10, 01:05:00,VALID,917.379,VALID,0,VALID,100,VALID,0.0849042,VALID,19.1545,VALID,75,VALID,0,
2009-07-10, 01:06:00,VALID,917.388,VALID,0,VALID,100,VALID,0,VALID,19.158,VALID,114,VALID,0,
2009-07-10, 01:07:00,VALID,917.416,VALID,0,VALID,100,VALID,0.0169808,VALID,19.1485,VALID,120,VALID,0.423147,
2009-07-10, 01:08:00,VALID,917.42,VALID,0,VALID,100,VALID,0,VALID,19.1221,VALID,127,VALID,0.699963,
2009-07-10, 01:09:00,VALID,917.414,VALID,0,VALID,100,VALID,0.0509425,VALID,19.0991,VALID,140,VALID,1.17035,
2009-07-10, 01:10:00,VALID,917.402,VALID,0,VALID,100,VALID,0.0169808,VALID,19.0991,VALID,146,VALID,1.13633,
2009-07-10, 01:11:00,VALID,917.369,VALID,0,VALID,100,VALID,0,VALID,19.0968,VALID,159,VALID,1.22958,
2009-07-10, 01:12:00,VALID,917.342,VALID,0,VALID,100,VALID,-0.0679233,VALID,19.0843,VALID,148,VALID,1.33485,
2009-07-10, 01:13:00,VALID,917.3,VALID,0,VALID,100,VALID,-0.101885,VALID,19.0681,VALID,142,VALID,1.48065,
2009-07-10, 01:14:00,VALID,917.262,VALID,0,VALID,100,VALID,-0.101885,VALID,19.0654,VALID,160,VALID,0.8837,
2009-07-10, 01:15:00,VALID,917.258,VALID,0,VALID,100,VALID,-0.101885,VALID,19.0748,VALID,176,VALID,0.946378,
2009-07-10, 01:16:00,VALID,917.251,VALID,0,VALID,100,VALID,-0.101885,VALID,19.0913,VALID,152,VALID,1.32903,
2009-07-10, 01:17:00,VALID,917.241,VALID,0,VALID,100,VALID,-0.101885,VALID,19.1113,VALID,146,VALID,1.43203,
2009-07-10, 01:18:00,VALID,917.246,VALID,0,VALID,100,VALID,-0.0679233,VALID,19.1008,VALID,141,VALID,1.50639,
2009-07-10, 01:19:00,VALID,917.25,VALID,0,VALID,100,VALID,-0.101885,VALID,19.0941,VALID,142,VALID,1.78379,
2009-07-10, 01:20:00,VALID,917.255,VALID,0,VALID,100,VALID,-0.101885,VALID,19.104,VALID,138,VALID,1.49516,
2009-07-10, 01:21:00,VALID,917.25,VALID,0,VALID,100,VALID,-0.0849042,VALID,19.1075,VALID,130,VALID,1.32703,
2009-07-10, 01:22:00,VALID,917.237,VALID,0,VALID,100,VALID,-0.101885,VALID,19.1105,VALID,131,VALID,1.30948,
2009-07-10, 01:23:00,VALID,917.219,VALID,0,VALID,100,VALID,-0.0509425,VALID,19.1075,VALID,128,VALID,1.45273,
2009-07-10, 01:24:00,VALID,917.2,VALID,0,VALID,100,VALID,-0.0679233,VALID,19.1138,VALID,125,VALID,1.34431,
2009-07-10, 01:25:00,VALID,917.175,VALID,0,VALID,100,VALID,-0.0679233,VALID,19.1138,VALID,134,VALID,1.10268,
2009-07-10, 01:26:00,VALID,917.138,VALID,0,VALID,100,VALID,-0.0509425,VALID,19.1168,VALID,127,VALID,1.4415,
2009-07-10, 01:27:00,VALID,917.108,VALID,0,VALID,100,VALID,-0.101885,VALID,19.1268,VALID,136,VALID,1.4628,
2009-07-10, 01:28:00,VALID,917.093,VALID,0,VALID,100,VALID,-0.0849042,VALID,19.1298,VALID,150,VALID,1.19288,
2009-07-10, 01:29:00,VALID,917.093,VALID,0,VALID,100,VALID,-0.0849042,VALID,19.1397,VALID,154,VALID,1.04968,
2009-07-10, 01:30:00,VALID,917.085,VALID,0,VALID,100,VALID,-0.0849042,VALID,19.13,VALID,149,VALID,1.04501,
2009-07-10, 01:31:00,VALID,917.099,VALID,0,VALID,100,VALID,-0.118866,VALID,19.1272,VALID,138,VALID,0.953683,
2009-07-10, 01:32:00,VALID,917.101,VALID,0,VALID,100,VALID,-0.101885,VALID,19.1135,VALID,140,VALID,1.25327,
2009-07-10, 01:33:00,VALID,917.092,VALID,0,VALID,100,VALID,-0.118866,VALID,19.1045,VALID,131,VALID,1.1625,
2009-07-10, 01:34:00,VALID,917.085,VALID,0,VALID,100,VALID,-0.118866,VALID,19.0843,VALID,146,VALID,1.08575,
2009-07-10, 01:35:00,VALID,917.083,VALID,0,VALID,100,VALID,-0.0849042,VALID,19.0748,VALID,147,VALID,0.83125,
2009-07-10, 01:36:00,VALID,917.088,VALID,0,VALID,100,VALID,-0.0849042,VALID,19.0783,VALID,156,VALID,0.931141,
2009-07-10, 01:37:00,VALID,917.089,VALID,0,VALID,100,VALID,-0.0679233,VALID,19.0718,VALID,133,VALID,0.717634,
2009-07-10, 01:38:00,VALID,917.101,VALID,0,VALID,100,VALID,-0.118866,VALID,19.0621,VALID,139,VALID,0.480373,
2009-07-10, 01:39:00,VALID,917.097,VALID,0,VALID,100,VALID,-0.101885,VALID,19.0459,VALID,116,VALID,0.600561,
2009-07-10, 01:40:00,VALID,917.103,VALID,0,VALID,100,VALID,-0.118866,VALID,19.0227,VALID,106,VALID,0.749238,
2009-07-10, 01:41:00,VALID,917.092,VALID,0,VALID,100,VALID,-0.101885,VALID,19.0232,VALID,103,VALID,0.747337,
2009-07-10, 01:42:00,VALID,917.069,VALID,0,VALID,100,VALID,-0.0849042,VALID,19.01,VALID,94,VALID,0.766183,
2009-07-10, 01:43:00,VALID,917.048,VALID,0,VALID,100,VALID,-0.0679233,VALID,19.0067,VALID,115,VALID,0.675509,
2009-07-10, 01:44:00,VALID,917.009,VALID,0,VALID,100,VALID,-0.0679233,VALID,18.9835,VALID,88,VALID,0.647166,
2009-07-10, 01:45:00,VALID,916.988,VALID,0,VALID,100,VALID,-0.0679233,VALID,18.9875,VALID,72,VALID,0.695499,
2009-07-10, 01:46:00,VALID,916.945,VALID,0,VALID,100,VALID,-0.101885,VALID,18.9578,VALID,68,VALID,0.779615,
2009-07-10, 01:47:00,VALID,916.925,VALID,0,VALID,100,VALID,-0.0849042,VALID,18.9418,VALID,90,VALID,0.729651,
2009-07-10, 01:48:00,VALID,916.905,VALID,0,VALID,100,VALID,-0.0849042,VALID,18.9384,VALID,92,VALID,0.627841,
2009-07-10, 01:49:00,VALID,916.899,VALID,0,VALID,100,VALID,0.0169808,VALID,18.9342,VALID,85,VALID,0.668679,
2009-07-10, 01:50:00,VALID,916.902,VALID,0,VALID,100,VALID,0.0679233,VALID,18.9297,VALID,80,VALID,0.762891,
2009-07-10, 01:51:01,VALID,916.907,VALID,0,VALID,100,VALID,0.0339617,VALID,18.9337,VALID,91,VALID,0.588118,
2009-07-10, 01:52:00,VALID,916.917,VALID,0,VALID,100,VALID,0.0509425,VALID,18.9242,VALID,77,VALID,0.740972,
2009-07-10, 01:53:00,VALID,916.925,VALID,0,VALID,100,VALID,0.0169808,VALID,18.9212,VALID,86,VALID,0.713728,
2009-07-10, 01:54:01,VALID,916.923,VALID,0,VALID,100,VALID,0.0509425,VALID,18.9239,VALID,87,VALID,0.801461,
2009-07-10, 01:55:00,VALID,916.913,VALID,0,VALID,100,VALID,0.0509425,VALID,18.9304,VALID,89,VALID,0.52782,
2009-07-10, 01:56:01,VALID,916.884,VALID,0,VALID,100,VALID,0.0339617,VALID,18.9564,VALID,115,VALID,0.648958,
2009-07-10, 01:57:01,VALID,916.849,VALID,0,VALID,100,VALID,0,VALID,18.9696,VALID,157,VALID,0.46317,
2009-07-10, 01:58:00,VALID,916.807,VALID,0,VALID,100,VALID,0,VALID,18.9758,VALID,163,VALID,0.0227108,
2009-07-10, 01:59:00,VALID,916.778,VALID,0,VALID,100,VALID,-0.0169808,VALID,18.9626,VALID,163,VALID,0,
2009-07-10, 02:00:01,VALID,916.749,VALID,0,VALID,100,VALID,-0.0169808,VALID,18.9629,VALID,163,VALID,0,
2009-07-10, 02:01:00,VALID,916.736,VALID,0,VALID,100,VALID,0.0339617,VALID,18.9432,VALID,173,VALID,0.318314,
2009-07-10, 02:02:00,VALID,916.737,VALID,0,VALID,100,VALID,0.0169808,VALID,18.9499,VALID,176,VALID,0.233613,
2009-07-10, 02:03:00,VALID,916.732,VALID,0,VALID,100,VALID,0.0169808,VALID,18.9466,VALID,176,VALID,0.00078125,
2009-07-10, 02:04:01,VALID,916.713,VALID,0,VALID,100,VALID,0,VALID,18.9235,VALID,176,VALID,0.000545058,
2009-07-10, 02:05:01,VALID,916.722,VALID,0,VALID,100,VALID,0.0169808,VALID,18.901,VALID,176,VALID,0,
2009-07-10, 02:06:01,VALID,916.732,VALID,0,VALID,100,VALID,0.0169808,VALID,18.8686,VALID,176,VALID,0,
2009-07-10, 02:07:01,VALID,916.71,VALID,0,VALID,100,VALID,0,VALID,18.8558,VALID,176,VALID,0,
2009-07-10, 02:08:00,VALID,916.706,VALID,0,VALID,100,VALID,0.0679233,VALID,18.8519,VALID,176,VALID,0,
2009-07-10, 02:09:01,VALID,916.676,VALID,0,VALID,100,VALID,0.0509425,VALID,18.8718,VALID,176,VALID,0,
2009-07-10, 02:10:00,VALID,916.654,VALID,0,VALID,100,VALID,0.0339617,VALID,18.8915,VALID,176,VALID,0,
2009-07-10, 02:11:00,VALID,916.635,VALID,0,VALID,100,VALID,0,VALID,18.9012,VALID,176,VALID,0,
2009-07-10, 02:12:00,VALID,916.611,VALID,0,VALID,100,VALID,-0.0509425,VALID,18.8795,VALID,176,VALID,0,
2009-07-10, 02:13:00,VALID,916.593,VALID,0,VALID,100,VALID,-0.0509425,VALID,18.7762,VALID,172,VALID,0,
2009-07-10, 02:14:01,VALID,916.576,VALID,0,VALID,100,VALID,-0.0679233,VALID,18.6883,VALID,78,VALID,0,
2009-07-10, 02:15:00,VALID,916.563,VALID,0,VALID,100,VALID,-0.118866,VALID,18.6367,VALID,76,VALID,0,
2009-07-10, 02:16:00,VALID,916.538,VALID,0,VALID,100,VALID,-0.118866,VALID,18.6075,VALID,76,VALID,0,
2009-07-10, 02:17:00,VALID,916.538,VALID,0,VALID,100,VALID,-0.101885,VALID,18.614,VALID,76,VALID,0,
2009-07-10, 02:18:01,VALID,916.552,VALID,0,VALID,100,VALID,-0.101885,VALID,18.6072,VALID,76,VALID,0,
2009-07-10, 02:19:01,VALID,916.541,VALID,0,VALID,100,VALID,-0.101885,VALID,18.6204,VALID,76,VALID,0,
2009-07-10, 02:20:00,VALID,916.545,VALID,0,VALID,100,VALID,-0.101885,VALID,18.6401,VALID,76,VALID,0,
2009-07-10, 02:21:00,VALID,916.542,VALID,0,VALID,100,VALID,-0.101885,VALID,18.6042,VALID,76,VALID,0,
2009-07-10, 02:22:00,VALID,916.53,VALID,0,VALID,100,VALID,-0.101885,VALID,18.5426,VALID,76,VALID,0,
2009-07-10, 02:23:01,VALID,916.507,VALID,0,VALID,100,VALID,-0.0849042,VALID,18.6269,VALID,76,VALID,0,
2009-07-10, 02:24:01,VALID,916.462,VALID,0,VALID,100,VALID,-0.118866,VALID,18.6791,VALID,76,VALID,0,
2009-07-10, 02:25:00,VALID,916.423,VALID,0,VALID,100,VALID,-0.118866,VALID,18.6367,VALID,76,VALID,0.667535,
2009-07-10, 02:26:00,VALID,916.37,VALID,0,VALID,100,VALID,-0.101885,VALID,18.6821,VALID,76,VALID,0.424293,
2009-07-10, 02:27:00,VALID,916.335,VALID,0,VALID,100,VALID,0,VALID,18.6966,VALID,78,VALID,0.280717,
2009-07-10, 02:28:00,VALID,916.297,VALID,0,VALID,100,VALID,0,VALID,18.6712,VALID,78,VALID,0.0169271,
2009-07-10, 02:29:00,VALID,916.284,VALID,0,VALID,100,VALID,0,VALID,18.6577,VALID,78,VALID,0,
2009-07-10, 02:30:00,VALID,916.269,VALID,0,VALID,100,VALID,0.0169808,VALID,18.6385,VALID,78,VALID,0,
2009-07-10, 02:31:01,VALID,916.259,VALID,0,VALID,100,VALID,0.0169808,VALID,18.5931,VALID,78,VALID,0,
2009-07-10, 02:32:00,VALID,916.253,VALID,0,VALID,100,VALID,0.0169808,VALID,18.5312,VALID,78,VALID,0,
2009-07-10, 02:33:00,VALID,916.239,VALID,0,VALID,100,VALID,0,VALID,18.5183,VALID,84,VALID,0,
2009-07-10, 02:34:00,VALID,916.242,VALID,0,VALID,100,VALID,0,VALID,18.515,VALID,105,VALID,0,
2009-07-10, 02:35:01,VALID,916.223,VALID,0,VALID,100,VALID,0.0169808,VALID,18.4916,VALID,116,VALID,0,
2009-07-10, 02:36:01,VALID,916.228,VALID,0,VALID,100,VALID,0.0339617,VALID,18.5183,VALID,116,VALID,0.294212,
2009-07-10, 02:37:00,VALID,916.212,VALID,0,VALID,100,VALID,0.0169808,VALID,18.6028,VALID,116,VALID,0.807173,
2009-07-10, 02:38:01,VALID,916.213,VALID,0,VALID,100,VALID,0.0339617,VALID,18.6385,VALID,116,VALID,0.787847,
2009-07-10, 02:39:00,VALID,916.216,VALID,0,VALID,100,VALID,0,VALID,18.6482,VALID,115,VALID,0.927734,
2009-07-10, 02:40:01,VALID,916.208,VALID,0,VALID,100,VALID,-0.0169808,VALID,18.632,VALID,102,VALID,0.822731,
2009-07-10, 02:41:01,VALID,916.205,VALID,0,VALID,100,VALID,0.0169808,VALID,18.6023,VALID,93,VALID,0.851902,
2009-07-10, 02:42:01,VALID,916.208,VALID,0,VALID,100,VALID,0.0169808,VALID,18.6283,VALID,92,VALID,1.0069,
2009-07-10, 02:43:01,VALID,916.204,VALID,0,VALID,100,VALID,0,VALID,18.6545,VALID,89,VALID,0.832304,
2009-07-10, 02:44:00,VALID,916.206,VALID,0,VALID,100,VALID,0.0169808,VALID,18.6672,VALID,89,VALID,0.60032,
2009-07-10, 02:45:01,VALID,916.223,VALID,0,VALID,100,VALID,-0.0169808,VALID,18.7001,VALID,89,VALID,0.264863,
2009-07-10, 02:46:01,VALID,916.229,VALID,0,VALID,100,VALID,0.0169808,VALID,18.6999,VALID,89,VALID,0,
2009-07-10, 02:47:01,VALID,916.235,VALID,0,VALID,100,VALID,0,VALID,18.7066,VALID,95,VALID,0,
2009-07-10, 02:48:01,VALID,916.235,VALID,0,VALID,100,VALID,0.0169808,VALID,18.6904,VALID,143,VALID,0.425959,
2009-07-10, 02:49:01,VALID,916.238,VALID,0,VALID,100,VALID,0,VALID,18.6642,VALID,162,VALID,0.78016,
2009-07-10, 02:50:01,VALID,916.246,VALID,0,VALID,100,VALID,0.0169808,VALID,18.635,VALID,162,VALID,0.676136,
2009-07-10, 02:51:01,VALID,916.225,VALID,0,VALID,100,VALID,0,VALID,18.5993,VALID,163,VALID,0.699491,
2009-07-10, 02:52:01,VALID,916.219,VALID,0,VALID,100,VALID,0,VALID,18.5444,VALID,166,VALID,0.676781,
2009-07-10, 02:53:00,VALID,916.212,VALID,0,VALID,100,VALID,0,VALID,18.525,VALID,165,VALID,0.929688,
2009-07-10, 02:54:00,VALID,916.19,VALID,0,VALID,100,VALID,0.0169808,VALID,18.5252,VALID,164,VALID,0.904297,
2009-07-10, 02:55:00,VALID,916.172,VALID,0,VALID,100,VALID,0,VALID,18.5057,VALID,156,VALID,0.63244,
2009-07-10, 02:56:00,VALID,916.179,VALID,0,VALID,100,VALID,0,VALID,18.4893,VALID,156,VALID,0.719444,
2009-07-10, 02:57:00,VALID,916.175,VALID,0,VALID,100,VALID,-0.0169808,VALID,18.4728,VALID,155,VALID,0.444311,
2009-07-10, 02:58:00,VALID,916.171,VALID,0,VALID,100,VALID,-0.0169808,VALID,18.4666,VALID,149,VALID,0.630269,
2009-07-10, 02:59:00,VALID,916.181,VALID,0,VALID,100,VALID,0,VALID,18.4566,VALID,148,VALID,0.468369,
2009-07-10, 03:00:00,VALID,916.174,VALID,0,VALID,100,VALID,0,VALID,18.4504,VALID,148,VALID,0.432292,
2009-07-10, 03:01:00,VALID,916.189,VALID,0,VALID,100,VALID,0.0339617,VALID,18.424,VALID,150,VALID,0.46766,
2009-07-10, 03:02:00,VALID,916.208,VALID,0,VALID,100,VALID,-0.0169808,VALID,18.4117,VALID,176,VALID,0.696243,
2009-07-10, 03:03:00,VALID,916.235,VALID,0,VALID,100,VALID,-0.0169808,VALID,18.3925,VALID,180,VALID,0.962028,
2009-07-10, 03:04:00,VALID,916.274,VALID,0,VALID,100,VALID,0,VALID,18.386,VALID,187,VALID,1.19252,
2009-07-10, 03:05:00,VALID,916.304,VALID,0,VALID,100,VALID,0,VALID,18.376,VALID,188,VALID,1.06455,
2009-07-10, 03:06:00,VALID,916.327,VALID,0,VALID,100,VALID,0.0169808,VALID,18.3596,VALID,191,VALID,0.878049,
2009-07-10, 03:07:00,VALID,916.341,VALID,0,VALID,100,VALID,0,VALID,18.3436,VALID,191,VALID,0.332031,
2009-07-10, 03:08:00,VALID,916.342,VALID,0,VALID,100,VALID,0,VALID,18.3244,VALID,191,VALID,0.240663,
2009-07-10, 03:09:00,VALID,916.314,VALID,0,VALID,100,VALID,0,VALID,18.3209,VALID,188,VALID,0.520349,
2009-07-10, 03:10:00,VALID,916.288,VALID,0,VALID,100,VALID,0,VALID,18.3271,VALID,149,VALID,0.711868,
2009-07-10, 03:11:00,VALID,916.273,VALID,0,VALID,100,VALID,0,VALID,18.3144,VALID,135,VALID,0.654948,
2009-07-10, 03:12:00,VALID,916.247,VALID,0,VALID,100,VALID,0.0169808,VALID,18.275,VALID,114,VALID,0.686967,
2009-07-10, 03:13:00,VALID,916.24,VALID,0,VALID,100,VALID,-0.0169808,VALID,18.272,VALID,114,VALID,0.752604,
2009-07-10, 03:14:00,VALID,916.226,VALID,0,VALID,100,VALID,0,VALID,18.3044,VALID,122,VALID,0.792333,
2009-07-10, 03:15:00,VALID,916.25,VALID,0,VALID,100,VALID,-0.0169808,VALID,18.3566,VALID,116,VALID,0.714311,
2009-07-10, 03:16:00,VALID,916.248,VALID,0,VALID,100,VALID,-0.0169808,VALID,18.3658,VALID,109,VALID,0.826275,
2009-07-10, 03:17:00,VALID,916.275,VALID,0,VALID,100,VALID,-0.0169808,VALID,18.3823,VALID,119,VALID,0.770894,
2009-07-10, 03:18:00,VALID,916.28,VALID,0,VALID,100,VALID,-0.0509425,VALID,18.4242,VALID,103,VALID,0.951308,
2009-07-10, 03:19:00,VALID,916.281,VALID,0,VALID,100,VALID,-0.0339617,VALID,18.4636,VALID,110,VALID,0.952734,
2009-07-10, 03:20:00,VALID,916.287,VALID,0,VALID,100,VALID,-0.0339617,VALID,18.4768,VALID,110,VALID,1.09412,
2009-07-10, 03:21:00,VALID,916.278,VALID,0,VALID,100,VALID,-0.0339617,VALID,18.4571,VALID,101,VALID,0.853516,
2009-07-10, 03:22:00,VALID,916.267,VALID,0,VALID,100,VALID,0,VALID,18.4439,VALID,109,VALID,0.958576,
2009-07-10, 03:23:00,VALID,916.253,VALID,0,VALID,100,VALID,-0.0339617,VALID,18.4541,VALID,111,VALID,0.970796,
2009-07-10, 03:24:00,VALID,916.241,VALID,0,VALID,100,VALID,-0.0339617,VALID,18.4506,VALID,118,VALID,0.943677,
2009-07-10, 03:25:00,VALID,916.245,VALID,0,VALID,100,VALID,-0.0169808,VALID,18.4309,VALID,123,VALID,1.02195,
2009-07-10, 03:26:00,VALID,916.232,VALID,0,VALID,100,VALID,-0.0169808,VALID,18.4149,VALID,123,VALID,1.11246,
2009-07-10, 03:27:00,VALID,916.216,VALID,0,VALID,100,VALID,-0.0169808,VALID,18.3922,VALID,131,VALID,1.0245,
2009-07-10, 03:28:00,VALID,916.211,VALID,0,VALID,100,VALID,-0.0339617,VALID,18.3661,VALID,126,VALID,1.27251,
2009-07-10, 03:29:00,VALID,916.194,VALID,0,VALID,100,VALID,0,VALID,18.3598,VALID,125,VALID,1.22693,
2009-07-10, 03:30:00,VALID,916.182,VALID,0,VALID,100,VALID,-0.0169808,VALID,18.3466,VALID,118,VALID,1.23092,
2009-07-10, 03:31:00,VALID,916.164,VALID,0,VALID,100,VALID,-0.0339617,VALID,18.3241,VALID,113,VALID,0.99385,
2009-07-10, 03:32:00,VALID,916.161,VALID,0,VALID,100,VALID,-0.0169808,VALID,18.301,VALID,116,VALID,0.77907,
2009-07-10, 03:33:00,VALID,916.16,VALID,0,VALID,100,VALID,0,VALID,18.2725,VALID,124,VALID,0.734375,
2009-07-10, 03:34:00,VALID,916.146,VALID,0,VALID,100,VALID,0,VALID,18.282,VALID,122,VALID,0.849888,
2009-07-10, 03:35:00,VALID,916.165,VALID,0,VALID,100,VALID,0,VALID,18.2884,VALID,108,VALID,0.775618,
2009-07-10, 03:36:00,VALID,916.174,VALID,0,VALID,100,VALID,-0.0509425,VALID,18.2785,VALID,118,VALID,0.701823,
2009-07-10, 03:37:00,VALID,916.165,VALID,0,VALID,100,VALID,0.0339617,VALID,18.2396,VALID,101,VALID,0.625545,
2009-07-10, 03:38:00,VALID,916.165,VALID,0,VALID,100,VALID,-0.0169808,VALID,18.2396,VALID,101,VALID,0.55785,
2009-07-10, 03:39:00,VALID,916.156,VALID,0,VALID,100,VALID,0,VALID,18.2655,VALID,101,VALID,0.789063,
2009-07-10, 03:40:00,VALID,916.139,VALID,0,VALID,100,VALID,-0.0339617,VALID,18.2752,VALID,112,VALID,0.872768,
2009-07-10, 03:41:00,VALID,916.147,VALID,0,VALID,100,VALID,0,VALID,18.3202,VALID,119,VALID,0.838986,
2009-07-10, 03:42:00,VALID,916.139,VALID,0,VALID,100,VALID,0,VALID,18.3468,VALID,119,VALID,0.822674,